{"data":{"norad_id":59889,"intl_designator":"2024-100E","name":"STARLINK-31969","alt_names":[],"object_type":"PAYLOAD","status":"ACTIVE","operator":null,"country":"US","launch_date":"2024-05-28","launch_site_code":"AFETR","launch_vehicle":null,"mission":null,"orbit_class":"UNKNOWN","rcs_meters":null,"size_class":null,"mass_kg":null,"dimensions":null,"purposes":["comms"],"wikipedia_slug":null,"has_3d_model":false,"image_url":null,"decayed_at":null,"tle_current":{"epoch":"2026-05-25T00:54:11.421216Z","epoch_age_seconds":78688,"freshness":"FRESH","line1":"1 59889U 24100E   26145.03763219  .00000776  00000+0  37698-4 0  9991","line2":"2 59889  43.0035  50.7417 0001146 282.3521  77.7202 15.27586638112870","mean_motion":15.27586638,"eccentricity":0.0001146,"inclination_deg":43.0035,"raan_deg":50.7417,"arg_perigee_deg":282.3521,"mean_anomaly_deg":77.7202,"bstar":3.7698e-5,"rev_number":11287,"period_min":94.266339085378,"perigee_km":482.24292990286,"apogee_km":483.81550920038,"semimajor_km":6861.1662195516,"source":"CELESTRAK","updated_at":"2026-05-25T13:38:19.116552Z"}}}